Location: Allison's Woods
(35.8809°N, 80.8140°W)
Time: 06:09:31
(UTC-04:00)

Iridium 39 - Visible Passes

Search period start: 28 April 2017 00:00
Search period end: 08 May 2017 00:00
Orbit: 723 x 753 km, 86.4° (Epoch: 26 April)

Date Brightness Start Highest point End Pass type
(mag) Time Alt. Az. Time Alt. Az. Time Alt. Az.
28 Apr 8.5 01:19:04 10° N 01:20:09 17° N 01:20:09 17° N visible
29 Apr 8.6 00:34:26 10° NNE 00:35:10 14° NNE 00:35:10 14° NNE visible
29 Apr 8.7 02:14:34 10° NNW 02:14:49 11° NNW 02:14:49 11° NNW visible
30 Apr 8.4 01:28:40 10° N 01:29:51 17° NNW 01:29:51 17° NNW visible
01 May 8.3 00:43:36 10° N 00:44:52 18° NNE 00:44:52 18° NNE visible
01 May 8.5 23:59:29 10° NNE 23:59:54 12° NE 23:59:54 12° NE visible
02 May 8.4 01:38:29 10° NNW 01:39:33 16° NNW 01:39:33 16° NNW visible
03 May 8.2 00:53:01 10° N 00:54:36 21° N 00:54:36 21° N visible
04 May 8.2 00:08:20 10° NNE 00:09:38 17° NNE 00:09:38 17° NNE visible
04 May 8.6 01:48:35 10° NNW 01:49:17 13° NW 01:49:17 13° NW visible
05 May 8.1 01:02:37 10° N 01:04:20 21° NNW 01:04:20 21° NNW visible
06 May 8.0 00:17:31 10° N 00:19:24 22° NNE 00:19:24 22° NNE visible
06 May 8.2 23:33:20 10° NNE 23:34:27 14° NE 23:34:27 14° NE visible
07 May 8.2 01:12:28 10° NNW 01:14:06 19° NNW 01:14:06 19° NNW visible
